Location: Sternwarte ZA, Rosenfeld-Brittheim
(48.2889°N, 8.6789°E)
Time: 01:25:44
(UTC+02:00)

ISS - Pass Details

Date: 20 July 2018
Orbit: 402 x 408 km, 51.6° (Epoch: 18 July)

Event Time Altitude Azimuth Distance (km) Brightness Sun altitude
Rises 02:13:17 0° 283° (WNW) 2,328 0.1 -20.4°
Reaches altitude 10° 02:15:25 10° 290° (WNW) 1,468 -0.9 -20.3°
Maximum altitude 02:18:36 45° 5° (N) 563 -2.7 -20.2°
Drops below altitude 10° 02:21:47 10° 80° (E) 1,469 -0.7 -20.1°
Sets 02:23:56 0° 87° (E) 2,330 0.2 -20.0°
